Location: Chillicothe
(39.7950°N, 93.5520°W)
Time: 03:24:26
(UTC-05:00)

Vanguard 2 Rocket - All Passes

Search period start: 15 October 2019 00:00
Search period end: 25 October 2019 00:00
Orbit: 554 x 3326 km, 32.9° (Epoch: 13 October)

Date Brightness Start Highest point End Pass type
(mag) Time Alt. Az. Time Alt. Az. Time Alt. Az.
15 Oct - 07:47:23 10° SSE 07:54:26 13° SE 08:01:52 10° ESE daylight
15 Oct - 09:52:41 10° SSW 10:09:26 39° SE 10:26:03 10° E daylight
15 Oct - 12:06:39 10° WSW 12:26:31 62° SSE 12:42:24 10° E daylight
15 Oct - 14:24:29 10° W 14:43:54 67° S 14:56:27 10° ESE daylight
15 Oct - 16:44:02 10° W 16:59:13 46° SSW 17:08:23 10° SE daylight
15 Oct - 19:06:14 10° WSW 19:11:26 14° SW 19:15:36 10° SSW visible
16 Oct - 08:53:38 10° SSW 09:08:09 30° SE 09:23:45 10° E daylight
16 Oct - 11:05:33 10° SW 11:24:33 56° SSE 11:41:44 10° E daylight
16 Oct - 13:22:06 10° WSW 13:42:17 69° S 13:56:41 10° E daylight
16 Oct - 15:41:08 10° W 15:58:46 56° SSW 16:09:37 10° SE daylight
16 Oct - 18:01:43 10° W 18:12:12 25° SW 18:19:22 10° S daylight
17 Oct - 07:55:50 10° S 08:07:17 21° SE 08:20:06 10° E daylight
17 Oct - 10:05:10 10° SW 10:22:44 48° SSE 10:40:30 10° E daylight
17 Oct - 12:20:11 10° WSW 12:40:19 67° S 12:56:30 10° E daylight
17 Oct - 14:38:24 10° W 14:57:44 64° SSW 15:10:23 10° ESE daylight
17 Oct - 16:58:16 10° W 17:12:31 36° SW 17:21:38 10° SSE daylight
18 Oct - 07:00:49 10° SSE 07:06:52 13° SE 07:13:26 10° ESE visible
18 Oct - 09:05:33 10° SSW 09:21:12 39° SE 09:38:38 10° E daylight
18 Oct - 11:18:51 10° WSW 11:38:12 63° SSE 11:55:52 10° E daylight
18 Oct - 13:35:57 10° W 13:56:09 69° S 14:10:41 10° ESE daylight
18 Oct - 15:55:11 10° W 16:12:16 48° SSW 16:23:09 10° SE daylight
18 Oct - 18:17:19 10° W 18:25:06 17° SW 18:31:04 10° SSW daylight
19 Oct - 08:06:51 10° S 08:20:09 30° SE 08:35:51 10° E daylight
19 Oct - 10:18:11 10° SW 10:36:09 57° SSE 10:54:44 10° E daylight
19 Oct - 12:33:57 10° WSW 12:54:10 70° S 13:10:33 10° E daylight
19 Oct - 14:52:22 10° W 15:11:24 58° SSW 15:24:07 10° SE daylight
19 Oct - 17:12:53 10° W 17:25:34 28° SW 17:34:19 10° S daylight
20 Oct - 07:09:24 10° S 07:19:35 20° SE 07:31:45 10° E daylight
20 Oct - 09:18:12 10° SW 09:34:24 49° SSE 09:53:02 10° E daylight
20 Oct - 11:32:28 10° WSW 11:51:57 68° S 12:09:56 10° E daylight
20 Oct - 13:49:54 10° W 14:09:57 65° SSW 14:24:35 10° ESE daylight
20 Oct - 16:09:24 10° W 16:25:31 39° SW 16:36:19 10° SSE daylight
21 Oct - 06:15:15 10° SE 06:19:30 11° SE 06:24:08 10° ESE visible
21 Oct - 08:18:58 10° SSW 08:33:06 39° SE 08:50:40 10° E daylight
21 Oct - 10:31:35 10° WSW 10:49:45 64° SSE 11:08:49 10° E daylight
21 Oct - 12:47:51 10° W 13:08:01 69° S 13:24:31 10° ESE daylight
21 Oct - 15:06:26 10° W 15:24:52 50° SSW 15:37:36 10° SE daylight
21 Oct - 17:28:20 10° W 17:38:25 19° SW 17:46:04 10° S daylight
22 Oct - 07:20:35 10° S 07:32:22 29° SE 07:47:28 10° E daylight
22 Oct - 09:31:21 10° SW 09:47:46 57° SSE 10:07:11 10° E daylight
22 Oct - 11:46:17 10° WSW 12:05:47 71° S 12:23:56 10° E daylight
22 Oct - 14:03:54 10° W 14:23:36 59° SSW 14:38:15 10° SE daylight
22 Oct - 16:24:00 10° W 16:38:31 30° SW 16:48:55 10° SSE daylight
23 Oct - 06:23:29 10° SSE 06:32:09 19° SE 06:42:58 10° E visible
23 Oct - 08:31:45 10° SW 08:46:14 48° SSE 09:05:01 10° E daylight
23 Oct - 10:45:17 10° WSW 11:03:29 69° S 11:22:51 10° E daylight
23 Oct - 13:01:49 10° W 13:21:48 66° SSW 13:38:20 10° ESE daylight
23 Oct - 15:20:40 10° W 15:38:05 41° SW 15:50:39 10° SSE daylight
23 Oct - 17:46:09 10° WSW 17:51:05 12° SW 17:55:26 10° SW daylight
24 Oct - 07:32:51 10° SSW 07:45:16 38° SE 08:02:15 10° E daylight
24 Oct - 09:44:51 10° WSW 10:01:21 64° SSE 10:21:14 10° E daylight
24 Oct - 12:00:14 10° W 12:19:37 70° S 12:37:52 10° ESE daylight
24 Oct - 14:17:59 10° W 14:37:01 51° SSW 14:51:38 10° SE daylight
24 Oct - 16:39:21 10° W 16:51:19 22° SW 17:00:38 10° S daylight
